Weather History for Edinburg, TX

Change the Weather History Date:

Friday, April 13, 2012

  Actual Average (KMFE) Record (KMFE)
Temperature  
Mean Temperature 82 °F 76 °F  
Max Temperature 90 °F 87 °F 98 °F (2009)
Min Temperature 75 °F 65 °F 48 °F (1997)
Degree Days  
Heating Degree Days 0 0  
Month to date heating degree days 3  
Since 1 July heating degree days 574  
Cooling Degree Days 18 11  
Month to date cooling degree days 137  
Year to date cooling degree days 514  
Growing Degree Days 32 (Base 50)    
Moisture  
Dew Point 69 °F    
Average Humidity 66    
Maximum Humidity 82    
Minimum Humidity 45    
Precipitation  
Precipitation 0.00 in 0.04 in 0.81 in (2010)
Month to date precipitation 0.43  
Year to date precipitation 3.62  
Sea Level Pressure  
Sea Level Pressure 29.87 in    
Wind  
Wind Speed 14 mph (SE)    
Max Wind Speed 24 mph    
Max Gust Speed 32 mph    
Visibility 9 miles    
Events Rain    
T = Trace of Precipitation, MM = Missing Value Source: NWS Daily Summary

Daily Weather History Graph

Daily Weather History Graph

Search for Another Location

Airport:

Trip Planner

Search our weather history database for the weather conditions in past years. The results will help you decide how hot, cold, wet, or windy it might be!

Date:

Astronomy

Apr. 13, 2012 Rise Set
Actual Time 7:10 AM CDT 7:55 PM CDT
Civil Twilight 6:46 AM CDT 8:19 PM CDT
Nautical Twilight 6:19 AM CDT 8:47 PM CDT
Astronomical Twilight 5:50 AM CDT 9:15 PM CDT
Moon 2:14 AM CDT (4/13) 1:25 PM CDT (4/13)
Length of Visible Light 13h 32m
Length of Day
12h 45m
Waning Gibbous, 47% of the Moon is Illuminated
Apr 13
Waning Gibbous
Apr 21
New
Apr 29
First Quarter
May 5
Full
May 12
Last Quarter

Hourly Weather History & Observations

Time (CDT) Temp. Heat Index Dew Point Humidity Pressure Visibility Wind Dir Wind Speed Gust Speed Precip Events Conditions
12:15 AM 76.8 °F - 68.9 °F 76% 29.92 in 10.0 mi SE 12.7 mph 17.3 mph N/A   Scattered Clouds
12:35 AM 76.5 °F - 68.9 °F 77% 29.91 in 10.0 mi SE 9.2 mph - N/A   Scattered Clouds
12:55 AM 76.3 °F - 68.9 °F 78% 29.90 in 10.0 mi SE 11.5 mph - N/A   Scattered Clouds
1:15 AM 76.3 °F - 68.9 °F 78% 29.90 in 10.0 mi SE 11.5 mph - N/A   Scattered Clouds
1:35 AM 76.1 °F - 68.9 °F 78% 29.90 in 10.0 mi SE 11.5 mph - N/A   Mostly Cloudy
1:55 AM 76.6 °F - 69.1 °F 77% 29.89 in 10.0 mi SE 12.7 mph 17.3 mph N/A   Overcast
2:15 AM 77.2 °F - 69.1 °F 76% 29.88 in 10.0 mi SE 13.8 mph 21.9 mph N/A   Overcast
2:35 AM 76.8 °F - 68.9 °F 76% 29.87 in 10.0 mi SE 13.8 mph 19.6 mph N/A   Mostly Cloudy
2:55 AM 76.3 °F - 68.9 °F 78% 29.87 in 10.0 mi SE 12.7 mph - N/A   Scattered Clouds
3:15 AM 75.9 °F - 68.9 °F 79% 29.87 in 10.0 mi ESE 10.4 mph - N/A   Scattered Clouds
3:35 AM 75.7 °F - 68.9 °F 79% 29.86 in 10.0 mi ESE 11.5 mph - N/A   Scattered Clouds
3:55 AM 75.7 °F - 68.9 °F 79% 29.86 in 10.0 mi ESE 9.2 mph - N/A   Mostly Cloudy
4:15 AM 76.1 °F - 68.9 °F 78% 29.87 in 10.0 mi SE 10.4 mph - N/A   Overcast
4:35 AM 76.1 °F - 69.1 °F 79% 29.87 in 10.0 mi SE 10.4 mph - N/A   Overcast
4:55 AM 76.5 °F - 69.3 °F 78% 29.87 in 10.0 mi SE 10.4 mph - N/A   Overcast
5:15 AM 76.5 °F - 69.6 °F 79% 29.87 in 10.0 mi SE 9.2 mph - N/A   Overcast
5:35 AM 76.5 °F - 69.8 °F 80% 29.87 in 10.0 mi SE 10.4 mph - N/A   Overcast
5:55 AM 76.6 °F - 69.8 °F 79% 29.87 in 7.0 mi SE 10.4 mph - N/A   Overcast
6:15 AM 76.8 °F - 69.8 °F 79% 29.88 in 10.0 mi SE 10.4 mph - N/A   Overcast
6:35 AM 77.0 °F - 70.0 °F 79% 29.88 in 10.0 mi SE 9.2 mph - N/A   Overcast
6:55 AM 76.3 °F - 70.0 °F 81% 29.89 in 10.0 mi SE 8.1 mph - N/A   Mostly Cloudy
7:15 AM 76.1 °F - 70.0 °F 81% 29.89 in 10.0 mi SE 10.4 mph - N/A   Overcast
7:35 AM 76.1 °F - 70.2 °F 82% 29.88 in 10.0 mi SE 11.5 mph - N/A   Scattered Clouds
7:55 AM 75.9 °F - 70.2 °F 82% 29.89 in 7.0 mi SE 11.5 mph - N/A   Clear
8:15 AM 76.6 °F - 70.5 °F 81% 29.89 in 7.0 mi SE 11.5 mph - N/A   Clear
8:35 AM 77.9 °F - 70.7 °F 78% 29.90 in 7.0 mi SE 12.7 mph 18.4 mph N/A   Clear
8:55 AM 79.2 °F - 70.7 °F 75% 29.90 in 10.0 mi SE 13.8 mph - N/A   Scattered Clouds
9:15 AM 80.4 °F 83.8 °F 70.3 °F 71% 29.91 in 10.0 mi SSE 18.4 mph 21.9 mph N/A   Scattered Clouds
9:35 AM 81.7 °F 85.2 °F 69.8 °F 67% 29.91 in 10.0 mi SE 18.4 mph 23.0 mph N/A   Mostly Cloudy
9:55 AM 82.2 °F 86.0 °F 69.6 °F 66% 29.92 in 7.0 mi SE 20.7 mph 26.5 mph N/A Rain Light Rain
10:15 AM 82.8 °F 86.2 °F 69.1 °F 63% 29.92 in 10.0 mi SSE 18.4 mph 23.0 mph N/A   Mostly Cloudy
10:35 AM 83.3 °F 86.6 °F 68.5 °F 61% 29.92 in 10.0 mi SE 18.4 mph 25.3 mph N/A   Mostly Cloudy
10:55 AM 84.2 °F 87.6 °F 68.4 °F 59% 29.91 in 10.0 mi SSE 17.3 mph 24.2 mph N/A   Mostly Cloudy
11:15 AM 85.1 °F 87.9 °F 67.5 °F 55% 29.91 in 10.0 mi SSE 19.6 mph 26.5 mph N/A   Overcast
11:35 AM 85.6 °F 88.5 °F 67.1 °F 54% 29.91 in 10.0 mi SSE 20.7 mph 26.5 mph N/A   Mostly Cloudy
11:55 AM 86.4 °F 89.4 °F 67.3 °F 53% 29.90 in 7.0 mi SSE 18.4 mph 27.6 mph N/A   Overcast
12:15 PM 87.1 °F 90.2 °F 67.3 °F 52% 29.90 in 7.0 mi SE 21.9 mph 32.2 mph N/A   Overcast
12:35 PM 87.6 °F 90.8 °F 67.5 °F 51% 29.90 in 7.0 mi SE 19.6 mph 25.3 mph N/A   Overcast
12:55 PM 88.2 °F 91.3 °F 67.5 °F 50% 29.90 in 7.0 mi SE 17.3 mph - N/A   Overcast
1:15 PM 88.2 °F 91.3 °F 67.3 °F 50% 29.89 in 10.0 mi South 20.7 mph 26.5 mph N/A   Overcast
1:35 PM 88.7 °F 91.5 °F 66.9 °F 48% 29.88 in 10.0 mi SSE 20.7 mph 26.5 mph N/A   Mostly Cloudy
1:55 PM 89.6 °F 92.2 °F 66.4 °F 46% 29.87 in 10.0 mi SSE 17.3 mph 25.3 mph N/A   Mostly Cloudy
2:15 PM 88.9 °F 91.4 °F 66.2 °F 47% 29.87 in 10.0 mi SE 19.6 mph 26.5 mph N/A   Mostly Cloudy
2:35 PM 89.6 °F 92.2 °F 66.6 °F 46% 29.86 in 10.0 mi SE 18.4 mph 23.0 mph N/A   Overcast
2:55 PM 90.7 °F 93.6 °F 66.4 °F 45% 29.86 in 10.0 mi SSE 19.6 mph 26.5 mph N/A   Mostly Cloudy
3:15 PM 90.0 °F 92.8 °F 66.4 °F 46% 29.85 in 10.0 mi SSE 20.7 mph 25.3 mph N/A   Overcast
3:35 PM 90.7 °F 93.6 °F 66.4 °F 45% 29.85 in 10.0 mi SE 21.9 mph 28.8 mph N/A   Mostly Cloudy
4:15 PM 89.6 °F 92.2 °F 66.4 °F 46% 29.83 in 10.0 mi SSE 21.9 mph 26.5 mph N/A   Mostly Cloudy
4:35 PM 90.0 °F 92.8 °F 66.4 °F 46% 29.82 in 10.0 mi SE 21.9 mph 28.8 mph N/A   Scattered Clouds
4:55 PM 90.0 °F 92.8 °F 66.7 °F 46% 29.82 in 10.0 mi SSE 18.4 mph 25.3 mph N/A   Clear
5:15 PM 89.2 °F 92.0 °F 66.4 °F 47% 29.82 in 10.0 mi South 20.7 mph 27.6 mph N/A   Scattered Clouds
5:35 PM 88.9 °F 91.8 °F 66.7 °F 48% 29.82 in 10.0 mi SSE 15.0 mph 25.3 mph N/A   Scattered Clouds
5:55 PM 88.0 °F 91.0 °F 67.5 °F 50% 29.82 in 10.0 mi SSE 18.4 mph 24.2 mph N/A   Mostly Cloudy
6:15 PM 86.9 °F 89.9 °F 67.5 °F 52% 29.82 in 10.0 mi SE 18.4 mph 28.8 mph N/A   Scattered Clouds
6:35 PM 86.0 °F 89.1 °F 67.5 °F 54% 29.82 in 10.0 mi SE 18.4 mph 25.3 mph N/A   Scattered Clouds
6:55 PM 85.8 °F 88.8 °F 67.5 °F 54% 29.82 in 10.0 mi SE 24.2 mph - N/A   Mostly Cloudy
7:15 PM 85.1 °F 88.2 °F 67.6 °F 56% 29.82 in 10.0 mi SSE 19.6 mph 24.2 mph N/A   Scattered Clouds
7:35 PM 83.7 °F 86.7 °F 68.0 °F 59% 29.82 in 10.0 mi SSE 19.6 mph 25.3 mph N/A   Clear
7:55 PM 82.6 °F 85.5 °F 68.0 °F 61% 29.83 in 10.0 mi SSE 16.1 mph 25.3 mph N/A   Clear
8:15 PM 81.7 °F 84.5 °F 68.0 °F 63% 29.84 in 10.0 mi SE 18.4 mph 21.9 mph N/A   Clear
8:35 PM 81.0 °F 83.8 °F 68.0 °F 65% 29.84 in 10.0 mi SSE 15.0 mph 20.7 mph N/A   Clear
8:55 PM 80.4 °F 83.2 °F 68.4 °F 67% 29.85 in 10.0 mi SE 10.4 mph 18.4 mph N/A   Clear
9:15 PM 79.5 °F - 68.7 °F 69% 29.86 in 10.0 mi SE 10.4 mph - N/A   Clear
9:35 PM 79.2 °F - 69.1 °F 71% 29.87 in 10.0 mi SE 12.7 mph - N/A   Clear
9:55 PM 79.0 °F - 69.4 °F 72% 29.87 in 10.0 mi SE 16.1 mph 19.6 mph N/A   Clear
10:15 PM 78.8 °F - 69.8 °F 74% 29.87 in 10.0 mi SE 13.8 mph - N/A   Scattered Clouds
10:35 PM 78.3 °F - 70.2 °F 76% 29.87 in 7.0 mi SE 12.7 mph - N/A   Mostly Cloudy
10:55 PM 78.6 °F - 70.5 °F 76% 29.88 in 7.0 mi SE 10.4 mph 20.7 mph N/A   Overcast
11:15 PM 78.8 °F - 70.7 °F 76% 29.88 in 7.0 mi SSE 10.4 mph - N/A   Mostly Cloudy
11:35 PM 78.4 °F - 70.9 °F 77% 29.88 in 7.0 mi SE 16.1 mph 19.6 mph N/A   Scattered Clouds
11:55 PM 78.1 °F - 71.1 °F 79% 29.87 in 7.0 mi SE 11.5 mph - N/A   Scattered Clouds